Date String (YYYY-MM-DD hh:mm:ss) UTC,Instrument flags,absolute air pressure of the measurement (hPa),sample flow rate (lpm),inlet stack bypass flow (lpm),air temperature of the measurement (°C),ambient temperature measured by the external sensor (°C),aerosol sample conditioner tube jacket temperature (°C),OPC LED temperature (°C),internal box temperature (°C),relative humidity of the measurement (%),span deviation,mass concentration of particles derived from Lorenz-Mie calculation of OPC scattering (μg/m³),mass concentration of particles derived from Lorenz-Mie calculation of OPC scattering (μg/m³),mass concentration of particles derived from Lorenz-Mie calculation of OPC scattering (μg/m³)
DateTimeUTC,F1_M11,P_M11,Q1_M11,Q2_M11,T1_M11,T2_M11,T3_M11,T4_M11,T5_M11,U1_M11,ZSPAN_M11,X2_M11,X0_M11,X1_M11
2024-05-09 03:00:00,SystemResetWarning,0825.8,5.01,000.00,025.8,025.0,000.0,034.1,027.6,009.2,0000.0,0000.53,0002.32,0000.33
2024-05-09 03:01:00,SystemResetWarning,0825.8,5.00,000.00,025.8,025.0,000.0,034.1,027.6,009.2,0000.0,0000.51,0002.27,0000.33
2024-05-09 03:02:00,SystemResetWarning,0825.9,4.99,000.00,025.8,025.0,000.0,034.1,027.5,009.2,0000.0,0000.51,0002.20,0000.34
2024-05-09 03:03:00,SystemResetWarning,0825.9,5.00,000.00,025.8,025.0,000.0,034.1,027.5,009.2,0000.0,0000.51,0002.14,0000.34
2024-05-09 03:04:00,SystemResetWarning,0825.9,5.01,000.00,025.8,025.0,000.0,034.1,027.5,009.2,0000.0,0000.51,0002.16,0000.33
2024-05-09 03:05:00,SystemResetWarning,0825.9,5.01,000.00,025.8,025.0,000.0,034.1,027.5,009.2,0000.0,0000.49,0001.54,0000.33
2024-05-09 03:06:00,SystemResetWarning,0825.9,5.01,000.00,025.8,025.0,000.0,034.1,027.5,009.2,0000.0,0000.51,0001.01,0000.33
2024-05-09 03:07:00,SystemResetWarning,0825.9,5.00,000.00,025.8,025.0,000.0,034.1,027.5,009.2,0000.0,0000.51,0001.00,0000.32
2024-05-09 03:08:00,SystemResetWarning,0825.9,5.01,000.00,025.8,025.0,000.0,034.0,027.5,009.2,0000.0,0000.51,0000.93,0000.33
2024-05-09 03:09:00,SystemResetWarning,0825.9,5.00,000.00,025.8,025.0,000.0,034.0,027.5,009.1,0000.0,0000.52,0000.94,0000.32
2024-05-09 03:10:00,SystemResetWarning,0825.9,5.00,000.00,025.8,024.9,000.0,034.0,027.4,009.0,0000.0,0000.52,0000.94,0000.32
2024-05-09 03:11:00,SystemResetWarning,0825.9,4.99,000.00,025.7,024.9,000.0,034.0,027.5,009.1,0000.0,0000.52,0000.95,0000.32
2024-05-09 03:12:00,SystemResetWarning,0825.9,5.00,000.00,025.7,024.9,000.0,034.0,027.5,009.1,0000.0,0000.57,0001.13,0000.32
2024-05-09 03:13:00,SystemResetWarning,0825.9,5.00,000.00,025.7,024.9,000.0,034.0,027.5,009.1,0000.0,0000.58,0001.19,0000.31
2024-05-09 03:14:00,SystemResetWarning,0825.9,4.99,000.00,025.7,024.9,000.0,034.0,027.5,009.1,0000.0,0000.59,0001.19,0000.31
2024-05-09 03:15:00,SystemResetWarning,0825.9,5.00,000.00,025.7,024.9,000.0,034.0,027.5,009.1,0000.0,0000.60,0001.27,0000.32
2024-05-09 03:16:00,SystemResetWarning,0825.9,5.00,000.00,025.7,024.9,000.0,034.0,027.5,009.1,0000.0,0000.63,0001.62,0000.31
2024-05-09 03:17:00,SystemResetWarning,0825.9,5.01,000.00,025.7,024.9,000.0,034.0,027.4,009.2,0000.0,0000.62,0002.20,0000.31
2024-05-09 03:18:00,SystemResetWarning,0825.9,5.01,000.00,025.7,024.9,000.0,034.0,027.4,009.1,0000.0,0000.62,0002.22,0000.31
2024-05-09 03:19:00,SystemResetWarning,0826.0,4.99,000.00,025.7,024.9,000.0,034.0,027.4,009.2,0000.0,0000.65,0002.33,0000.31
2024-05-09 03:20:00,SystemResetWarning,0826.0,4.99,000.00,025.7,024.9,000.0,033.9,027.4,009.3,0000.0,0000.67,0002.40,0000.32
2024-05-09 03:21:00,SystemResetWarning,0826.0,4.99,000.00,025.7,024.9,000.0,033.9,027.4,009.3,0000.0,0000.67,0002.49,0000.32
2024-05-09 03:22:00,SystemResetWarning,0825.9,5.01,000.00,025.7,024.9,000.0,033.9,027.4,009.3,0000.0,0000.68,0002.48,0000.33
2024-05-09 03:23:00,SystemResetWarning,0826.0,5.00,000.00,025.7,024.9,000.0,033.9,027.4,009.2,0000.0,0000.63,0002.30,0000.32
2024-05-09 03:24:00,SystemResetWarning,0826.0,4.98,000.00,025.7,024.9,000.0,033.9,027.4,009.3,0000.0,0000.64,0002.29,0000.32
2024-05-09 03:25:00,SystemResetWarning,0826.0,5.01,000.00,025.7,024.9,000.0,033.9,027.3,009.3,0000.0,0000.64,0002.30,0000.32
2024-05-09 03:26:00,SystemResetWarning,0826.0,5.01,000.00,025.7,024.9,000.0,033.9,027.4,009.2,0000.0,0000.61,0002.29,0000.32
2024-05-09 03:27:00,SystemResetWarning,0826.1,5.00,000.00,025.6,024.9,000.0,033.9,027.3,009.3,0000.0,0000.60,0002.17,0000.32
2024-05-09 03:28:00,SystemResetWarning,0826.0,5.00,000.00,025.6,024.9,000.0,033.9,027.4,009.2,0000.0,0000.61,0001.63,0000.34
2024-05-09 03:29:00,SystemResetWarning,0826.0,4.99,000.00,025.6,024.8,000.0,033.9,027.4,009.3,0000.0,0000.61,0001.61,0000.34
2024-05-09 03:30:00,SystemResetWarning,0826.0,4.99,000.00,025.6,024.8,000.0,033.9,027.4,009.2,0000.0,0000.58,0001.51,0000.33
2024-05-09 03:31:00,SystemResetWarning,0826.0,5.01,000.00,025.6,024.8,000.0,033.9,027.4,009.2,0000.0,0000.57,0001.42,0000.34
2024-05-09 03:32:00,SystemResetWarning,0826.1,5.01,000.00,025.6,024.8,000.0,033.9,027.3,009.2,0000.0,0000.57,0001.34,0000.34
2024-05-09 03:33:00,SystemResetWarning,0826.1,5.00,000.00,025.6,024.8,000.0,033.9,027.3,009.2,0000.0,0000.57,0001.32,0000.34
2024-05-09 03:34:00,SystemResetWarning,0826.1,5.00,000.00,025.6,024.8,000.0,033.9,027.3,009.1,0000.0,0000.57,0001.33,0000.33
2024-05-09 03:35:00,SystemResetWarning,0826.2,5.00,000.00,025.6,024.8,000.0,033.9,027.3,009.2,0000.0,0000.57,0001.40,0000.33
2024-05-09 03:36:00,SystemResetWarning,0826.2,4.99,000.00,025.6,024.8,000.0,033.8,027.3,009.2,0000.0,0000.58,0001.49,0000.34
2024-05-09 03:37:00,SystemResetWarning,0826.2,5.00,000.00,025.6,024.8,000.0,033.8,027.3,009.2,0000.0,0000.58,0001.40,0000.34
2024-05-09 03:38:00,SystemResetWarning,0826.2,5.00,000.00,025.6,024.8,000.0,033.8,027.3,009.2,0000.0,0000.56,0001.05,0000.35
2024-05-09 03:39:00,SystemResetWarning,0826.2,5.00,000.00,025.6,024.8,000.0,033.8,027.3,009.3,0000.0,0000.56,0001.04,0000.34
2024-05-09 03:40:00,SystemResetWarning,0826.2,5.01,000.00,025.6,024.8,000.0,033.8,027.3,009.2,0000.0,0000.54,0001.00,0000.34
2024-05-09 03:41:00,SystemResetWarning,0826.2,5.01,000.00,025.6,024.8,000.0,033.8,027.3,009.2,0000.0,0000.55,0001.09,0000.34
2024-05-09 03:42:00,SystemResetWarning,0826.2,4.99,000.00,025.6,024.8,000.0,033.8,027.3,009.2,0000.0,0000.51,0001.01,0000.33
2024-05-09 03:43:00,SystemResetWarning,0826.2,5.00,000.00,025.6,024.7,000.0,033.8,027.3,009.2,0000.0,0000.49,0000.99,0000.33
2024-05-09 03:44:00,SystemResetWarning,0826.2,4.99,000.00,025.5,024.7,000.0,033.8,027.2,009.2,0000.0,0000.51,0001.05,0000.33
2024-05-09 03:45:00,SystemResetWarning,0826.2,5.00,000.00,025.5,024.7,000.0,033.8,027.2,009.2,0000.0,0000.54,0001.16,0000.34
2024-05-09 03:46:00,SystemResetWarning,0826.2,5.00,000.00,025.5,024.7,000.0,033.8,027.2,009.2,0000.0,0000.55,0001.17,0000.34
2024-05-09 03:47:00,SystemResetWarning,0826.2,5.00,000.00,025.5,024.7,000.0,033.8,027.2,009.2,0000.0,0000.54,0001.04,0000.34
2024-05-09 03:48:00,SystemResetWarning,0826.3,5.01,000.00,025.5,024.7,000.0,033.8,027.2,009.2,0000.0,0000.53,0001.03,0000.34
2024-05-09 03:49:00,SystemResetWarning,0826.3,5.00,000.00,025.5,024.7,000.0,033.8,027.2,009.2,0000.0,0000.53,0001.04,0000.34
2024-05-09 03:50:00,SystemResetWarning,0826.3,4.99,000.00,025.5,024.7,000.0,033.7,027.2,009.3,0000.0,0000.52,0001.02,0000.33
2024-05-09 03:51:00,SystemResetWarning,0826.3,4.99,000.00,025.5,024.7,000.0,033.7,027.2,009.3,0000.0,0000.52,0001.01,0000.34
2024-05-09 03:52:00,SystemResetWarning,0826.3,4.99,000.00,025.5,024.7,000.0,033.7,027.2,009.3,0000.0,0000.51,0000.90,0000.34
2024-05-09 03:53:00,SystemResetWarning,0826.4,5.00,000.00,025.5,024.7,000.0,033.7,027.2,009.3,0000.0,0000.52,0000.94,0000.33
2024-05-09 03:54:00,SystemResetWarning,0826.4,5.00,000.00,025.5,024.7,000.0,033.7,027.2,009.3,0000.0,0000.54,0000.97,0000.33
2024-05-09 03:55:00,SystemResetWarning,0826.4,5.00,000.00,025.5,024.7,000.0,033.7,027.1,009.3,0000.0,0000.55,0001.01,0000.33
2024-05-09 03:56:00,SystemResetWarning,0826.4,5.00,000.00,025.5,024.7,000.0,033.7,027.1,009.3,0000.0,0000.54,0000.97,0000.32
2024-05-09 03:57:00,SystemResetWarning,0826.4,5.00,000.00,025.5,024.7,000.0,033.7,027.2,009.2,0000.0,0000.53,0000.98,0000.32
2024-05-09 03:58:00,SystemResetWarning,0826.4,5.01,000.00,025.4,024.6,000.0,033.7,027.2,009.2,0000.0,0000.53,0000.97,0000.32
2024-05-09 03:59:00,SystemResetWarning,0826.4,5.00,000.00,025.4,024.6,000.0,033.7,027.1,009.3,0000.0,0000.52,0000.95,0000.31
